Simultaneous Nadir Overpasses (SNOs) Predictions

Prediction of SNOs between GOES-16 and NOAA-20 Satellite Orbit:

Table of predicted SNOs for the next 14.0 days since TLE Epoch: 9/14/2024
Index Date Time (GOES-16) GOES-16 Lat,Lon NOAA-20 Lat,Lon Distance(km) Time Diff (sec)
1 09/14/2024 06:12:20 0.06, -75.20 -0.68, -71.88 378.35 80
2 09/15/2024 18:31:33 -0.05, -75.20 -0.46, -77.18 224.46 80
3 09/16/2024 18:15:26 -0.05, -75.21 0.53, -72.63 293.44 80
4 09/18/2024 06:34:30 0.04, -75.22 0.64, -77.89 304.81 80
5 09/19/2024 06:18:23 0.04, -75.23 -0.36, -73.35 213.60 80
6 09/20/2024 18:37:35 -0.04, -75.24 -0.80, -78.64 387.66 80
7 09/21/2024 18:21:28 -0.04, -75.25 0.21, -74.10 131.02 80
8 09/23/2024 06:40:32 0.04, -75.27 0.93, -79.37 466.35 80
9 09/24/2024 06:24:24 0.04, -75.28 -0.09, -74.83 52.52 80
10 09/26/2024 18:24:48 -0.03, -75.32 -0.06, -75.58 28.84 80
11 09/27/2024 18:08:40 -0.02, -75.34 0.92, -71.03 490.89 80
